TimeSAST,TemperatureF,Dew PointF,Humidity,Sea Level PressureIn,VisibilityMPH,Wind Direction,Wind SpeedMPH,Gust SpeedMPH,PrecipitationIn,Events,Conditions,WindDirDegrees,DateUTC
12:00 AM,55.4,51.8,88,30.27,6.2,ESE,8.1,-,N/A,,Mostly Cloudy,110,2012-10-23 22:00:00
1:00 AM,53.6,51.8,94,30.27,6.2,East,5.8,-,N/A,,Partly Cloudy,90,2012-10-23 23:00:00
2:00 AM,53,50,87,30.25,12,ENE,5.8,,,,,70,2012-10-24 00:00:00
2:00 AM,53.6,50.0,88,30.24,6.2,ENE,5.8,-,N/A,,Partly Cloudy,70,2012-10-24 00:00:00
3:00 AM,53.6,50.0,88,30.21,-9999.0,East,8.1,-,N/A,,Clear,100,2012-10-24 01:00:00
4:00 AM,53.6,50.0,88,30.21,-9999.0,ESE,10.4,-,N/A,,Clear,110,2012-10-24 02:00:00
5:00 AM,53,49,84,30.21,12,East,10.4,,,,Scattered Clouds,100,2012-10-24 03:00:00
5:00 AM,53.6,48.2,82,30.21,6.2,East,10.4,-,N/A,,Partly Cloudy,100,2012-10-24 03:00:00
6:00 AM,51.8,48.2,88,30.21,6.2,East,5.8,-,N/A,,Partly Cloudy,80,2012-10-24 04:00:00
7:00 AM,55.4,48.2,77,30.21,6.2,East,8.1,-,N/A,,Partly Cloudy,90,2012-10-24 05:00:00
8:00 AM,60,49,59,30.22,12,East,10.4,,,,Scattered Clouds,100,2012-10-24 06:00:00
8:00 AM,60.8,50.0,68,30.21,6.2,East,10.4,-,N/A,,Partly Cloudy,100,2012-10-24 06:00:00
9:00 AM,64.4,50.0,59,30.18,6.2,ESE,13.8,-,N/A,,Partly Cloudy,110,2012-10-24 07:00:00
10:00 AM,64.4,48.2,56,30.18,6.2,ESE,16.1,-,N/A,,Partly Cloudy,110,2012-10-24 08:00:00
11:00 AM,66,51,48,30.16,12,ESE,20.7,,,,Scattered Clouds,110,2012-10-24 09:00:00
11:00 AM,66.2,50.0,56,30.15,6.2,ESE,20.7,-,N/A,,Partly Cloudy,110,2012-10-24 09:00:00
12:00 PM,66.2,51.8,60,30.12,6.2,ESE,25.3,-,N/A,,Partly Cloudy,120,2012-10-24 10:00:00
1:00 PM,66.2,51.8,60,30.09,6.2,ESE,21.9,-,N/A,,Partly Cloudy,110,2012-10-24 11:00:00
2:00 PM,66,54,56,30.06,12,ESE,24.2,,,,Clear,110,2012-10-24 12:00:00
2:00 PM,66.2,53.6,64,30.06,-9999.0,East,23.0,-,N/A,,Clear,100,2012-10-24 12:00:00
3:00 PM,64.4,55.4,73,30.04,-9999.0,ESE,24.2,-,N/A,,Clear,110,2012-10-24 13:00:00
4:00 PM,64.4,55.4,73,30.01,-9999.0,ESE,24.2,-,N/A,,Clear,110,2012-10-24 14:00:00
5:00 PM,64.4,57.2,77,30.01,-9999.0,ESE,18.4,-,N/A,,Clear,110,2012-10-24 15:00:00
6:00 PM,62.6,55.4,77,30.01,-9999.0,East,15.0,-,N/A,,Clear,100,2012-10-24 16:00:00
7:00 PM,60.8,55.4,82,30.01,-9999.0,ESE,11.5,-,N/A,,Clear,110,2012-10-24 17:00:00
8:00 PM,59,55,82,30.00,12,East,9.2,,,,,100,2012-10-24 18:00:00
8:00 PM,59.0,55.4,88,30.01,-9999.0,East,9.2,-,N/A,,Clear,100,2012-10-24 18:00:00
9:00 PM,57.2,53.6,88,29.98,-9999.0,ENE,5.8,-,N/A,,Clear,70,2012-10-24 19:00:00
10:00 PM,57.2,53.6,88,29.98,5.6,NNE,2.3,-,N/A,,Unknown,20,2012-10-24 20:00:00
11:00 PM,53.6,51.8,94,29.95,-9999.0,NNW,3.5,-,N/A,,Clear,330,2012-10-24 21:00:00